RH
81 74 77 77 78 85 100 83 96 74 83 50 62 55 58 38 49 80 95 97 96 95 96 95 95 97 98 100 93 83 93 93 77 69 98 99 99 94 98 97 84 82 87 80
92 79 82 85 52 54 62 87 100 82 61 60 56 54 57 42 36 46 69 95 97 97 96 97 96 97 98 100 82 82 89 76 76 84 98 99 97 99 100 95 94 85 82 82
93 86 86 83 37 33 35 45 54 68 48 66 58 65 61 49 38 33 42 51 92 96 96 96 96 94 99 99 100 97 84 96 95 92 99 97 96 98 100 98 100 97 98 95
94 94 96 41 33 37 41 44 52 53 57 65 64 66 59 56 48 38 32 42 57 94 98 94 95 97 96 98 100 97 93 93 96 99 99 100 99 94 100 98 98 99 91 96
95 96 60 52 46 42 42 45 49 49 61 67 67 69 64 66 58 48 38 35 43 77 94 94 96 96 94 95 94 94 93 90 96 98 97 100 100 98 99 92 99 100 98 94
99 97 98 48 48 54 64 75 46 57 56 56 68 68 74 72 64 52 40 33 42 60 93 96 97 97 96 95 95 96 95 96 98 100 99 98 100 96 98 99 97 99 99 89
99 95 82 68 65 68 98 53 53 60 67 80 77 77 86 87 67 52 43 39 51 61 83 93 98 97 98 95 96 96 96 97 98 98 97 99 100 100 100 100 100 100 99 90
99 97 89 58 55 60 48 55 66 81 88 93 96 94 98 80 60 59 59 57 63 67 76 92 96 98 98 99 97 96 100 96 97 100 98 96 96 96 98 99 99 100 99 90
92 81 73 66 62 67 74 84 88 92 91 96 95 91 82 66 67 74 67 63 69 69 76 87 92 94 96 96 99 100 98 96 94 93 94 98 97 98 98 98 99 99 100 98
98 94 98 98 97 94 88 91 97 99 94 94 92 80 72 73 71 68 67 67 68 69 78 85 90 93 93 96 97 95 95 96 100 95 94 95 96 97 97 97 98 99 100 100
96 96 98 98 96 85 58 64 83 85 83 86 84 81 77 72 71 69 69 72 69 65 71 82 84 88 93 97 97 96 95 96 96 97 99 96 96 97 97 97 98 99 99 100
97 99 100 94 60 47 63 78 88 87 87 88 87 81 73 71 71 66 68 70 71 68 70 77 83 83 89 91 96 97 94 96 97 98 100 95 95 96 96 97 97 98 99 99
97 98 97 77 48 49 62 84 93 90 90 90 87 78 71 70 72 70 70 75 77 75 74 83 84 84 81 89 94 97 97 97 95 95 97 97 99 98 97 97 97 98 99 98
99 84 62 53 42 42 58 78 86 88 87 83 80 80 75 72 72 74 72 76 82 86 79 84 90 84 83 82 88 95 96 97 94 93 97 97 95 96 96 97 96 97 98 98
40 43 42 40 42 49 65 76 81 86 85 83 78 78 77 76 74 75 79 76 81 85 86 86 92 89 83 80 81 84 94 97 97 97 100 96 94 95 96 98 96 96 97 98
46 48 51 57 60 64 67 73 79 81 80 79 79 78 78 80 82 80 80 82 82 87 90 88 89 86 86 82 78 77 79 92 96 97 100 94 94 96 98 97 96 96 97 98
21 30 44 63 76 78 72 72 77 83 85 85 86 87 88 87 87 86 84 86 86 86 84 87 91 90 88 83 77 73 71 74 91 97 100 95 94 94 96 97 97 95 96 96
20 28 34 46 62 75 79 83 82 81 78 73 69 64 68 84 90 94 91 92 94 97 86 87 90 90 88 84 78 72 68 67 71 94 97 96 95 96 97 96 96 95 96 96
22 29 39 51 65 81 90 94 92 83 73 69 72 77 74 63 72 95 95 95 96 100 97 90 92 91 88 82 77 72 68 63 60 74 95 97 97 95 97 98 94 95 96 97
27 34 42 50 58 59 58 54 58 67 72 71 70 73 75 72 66 90 98 99 100 100 92 99 100 100 93 80 79 72 68 66 63 59 78 92 96 95 96 96 94 95 96 96
25 30 36 43 50 54 57 64 72 80 84 84 84 90 100 100 93 93 100 100 100 98 90 100 99 100 94 80 82 74 69 67 64 61 58 80 93 93 94 94 95 96 96 96
27 34 40 46 55 65 65 71 79 86 88 88 90 100 100 100 100 100 100 100 100 99 91 100 100 100 88 85 82 77 74 70 66 65 62 61 74 95 98 97 95 96 95 95
32 42 49 54 61 68 74 78 83 87 90 93 98 100 100 100 100 100 100 99 100 100 90 99 100 99 89 89 87 82 78 75 70 69 67 68 67 74 92 96 94 95 95 95
34 46 52 57 64 71 75 78 81 83 92 96 100 100 100 100 100 100 100 100 100 99 99 100 100 98 97 93 91 90 87 81 76 75 74 73 73 71 77 92 93 94 94 96
35 46 54 59 65 73 76 78 81 84 93 100 100 100 100 100 100 94 98 100 100 98 100 96 95 99 99 99 97 95 93 89 86 84 80 79 80 83 78 82 92 95 95 96
32 47 58 62 66 72 74 77 81 85 92 100 97 98 100 100 100 99 94 93 94 95 98 97 94 100 100 100 100 100 98 96 98 96 92 90 88 90 88 85 88 94 95 96
32 40 55 65 69 70 74 77 85 91 93 96 94 93 100 100 100 100 99 97 94 95 96 98 96 100 100 100 100 100 100 100 100 100 100 100 98 99 99 96 92 93 96 96
Wind_Speed
35 33 31 34 35 36 39 42 29 36 34 27 25 24 18 22 24 23 23 21 18 15 11 11 15 17 21 25 33 35 31 30 33 40 57 51 53 56 51 55 54 57 58 55
30 31 30 36 37 36 37 34 37 35 34 27 20 22 17 20 23 24 24 24 22 17 14 10 12 16 18 21 34 39 30 28 27 36 46 66 48 56 52 53 51 52 54 53
17 21 16 25 21 16 22 29 28 30 28 24 21 22 18 19 23 26 27 26 25 22 17 12 10 11 15 22 28 32 28 30 29 32 46 65 62 59 55 52 53 53 54 55
20 20 2 9 10 19 24 26 28 29 26 25 24 22 19 23 24 27 30 29 26 24 18 15 12 11 12 19 24 31 34 34 32 30 46 56 58 66 60 59 56 51 53 50
11 12 25 34 28 20 19 25 24 26 22 24 25 17 19 26 27 29 30 30 28 25 22 17 14 11 11 14 19 27 35 34 35 29 39 59 69 63 57 60 64 52 56 49
18 6 7 8 12 16 22 32 15 13 14 16 17 19 25 30 26 25 29 29 26 23 21 19 16 13 11 14 16 21 27 31 31 30 30 50 58 58 60 59 63 59 57 52
32 20 18 24 26 22 8 16 21 16 17 21 24 27 26 26 26 28 29 26 24 22 21 20 16 13 12 13 15 17 21 26 25 26 25 33 50 56 66 69 62 63 59 57
21 15 16 20 18 20 26 30 29 30 32 26 23 27 27 25 27 28 25 23 23 21 21 20 19 14 13 13 14 16 19 23 23 25 24 24 31 42 52 58 53 56 53 52
22 15 19 23 29 30 35 36 35 35 30 29 26 23 25 25 24 24 23 21 21 21 19 20 19 16 13 13 14 16 17 20 22 24 27 27 28 33 41 48 56 54 57 54
31 36 36 37 37 37 37 39 34 30 29 26 23 22 23 23 24 24 23 21 21 21 19 18 18 17 14 13 13 14 15 19 21 25 27 27 30 29 32 41 47 50 53 58
38 39 39 37 34 34 31 27 25 24 24 23 25 23 23 22 23 24 23 22 21 21 20 19 17 17 15 12 12 13 14 17 19 23 25 27 27 29 29 37 43 51 54 59
40 35 33 33 33 29 25 23 23 24 24 27 25 23 22 21 23 23 22 22 21 20 20 19 17 16 15 12 11 11 14 16 19 20 21 26 27 27 31 32 39 46 51 55
30 30 33 32 26 24 23 22 23 24 25 25 25 23 22 20 22 22 22 21 20 20 20 18 18 16 15 14 11 11 13 15 18 19 20 24 27 26 27 30 34 41 46 49
33 30 25 22 21 21 22 22 24 24 25 24 24 24 22 20 21 23 22 21 19 19 19 18 17 17 15 14 13 11 11 13 15 18 19 22 26 25 26 29 32 37 44 47
17 17 18 20 21 21 23 23 24 25 25 24 23 22 22 21 21 21 23 22 19 19 19 18 17 17 15 14 13 12 12 12 14 16 16 20 24 24 26 28 30 32 40 47
16 18 20 22 24 24 24 23 24 25 24 24 23 22 22 22 21 21 23 23 21 18 19 18 17 16 15 15 14 13 13 12 12 15 15 19 21 22 24 28 29 30 34 42
18 21 22 23 25 26 26 25 24 24 23 23 22 21 20 21 21 21 21 22 20 18 18 18 17 17 16 16 15 13 12 13 12 12 14 17 19 20 21 26 30 29 29 33
22 23 24 25 25 26 27 27 26 25 25 25 24 23 21 20 19 20 20 20 19 18 17 16 16 16 16 16 15 14 13 12 13 12 12 14 17 18 19 23 29 31 29 29
21 22 24 26 27 28 30 31 33 34 34 33 32 31 28 25 22 19 19 19 18 16 18 15 14 15 16 15 15 14 13 13 12 12 12 14 15 18 18 20 24 29 32 30
21 23 25 28 30 32 32 31 28 26 25 24 23 26 27 26 24 21 18 17 17 16 17 14 14 14 16 13 13 14 14 13 13 13 13 13 14 16 18 19 22 25 30 34
21 22 24 25 25 24 22 21 20 20 20 19 19 20 19 20 22 21 18 15 16 16 15 13 13 14 16 12 12 14 13 14 13 12 12 13 13 15 17 19 21 23 26 30
20 20 21 21 20 19 19 16 15 16 16 16 16 16 16 16 17 19 17 14 14 17 13 11 13 13 16 11 12 12 13 13 13 13 12 13 15 16 15 17 20 21 24 27
19 19 19 18 16 15 15 13 13 13 13 14 15 15 15 14 15 16 15 15 13 16 12 11 11 13 12 12 12 11 12 12 13 13 13 14 15 16 16 16 18 21 23 25
17 17 16 15 14 12 12 10 11 10 11 13 14 15 14 13 14 14 14 14 14 13 11 10 9 10 10 10 10 10 11 11 12 13 13 13 14 15 17 16 16 19 21 23
16 15 14 13 12 11 10 9 9 9 9 10 13 15 15 14 14 13 13 13 14 12 12 10 8 8 8 8 8 9 9 9 10 12 12 13 13 14 15 18 18 17 19 21
15 14 13 12 11 10 9 9 9 8 8 10 13 13 15 15 14 13 11 11 12 11 10 9 8 7 6 6 6 6 7 8 9 10 11 12 13 14 15 17 19 20 19 19
14 13 12 11 11 10 9 7 6 8 8 10 12 11 14 16 15 13 12 11 11 11 10 9 8 6 5 5 5 5 5 6 7 8 9 10 12 13 15 16 17 20 20 20
Wind_Direction
275 279 283 284 284 279 269 271 249 277 279 294 295 302 323 339 339 340 340 336 326 314 299 269 248 236 225 229 226 217 229 228 240 253 221 213 208 209 211 215 214 216 215 217
272 285 290 283 280 273 273 265 261 275 282 290 284 296 314 338 339 336 341 343 338 325 311 287 254 236 222 214 225 230 241 229 243 235 219 216 207 210 215 211 217 216 218 220
271 288 293 290 278 256 266 268 267 265 294 283 277 286 294 327 337 336 335 338 337 331 319 300 269 245 230 211 206 218 227 224 228 229 214 215 217 214 213 210 218 216 218 221
275 285 248 258 266 285 282 278 274 282 281 271 274 276 291 321 327 331 330 328 327 327 322 307 292 266 239 220 207 207 224 223 225 234 217 213 217 219 209 214 214 218 219 218
242 215 274 282 274 276 273 284 280 281 270 276 280 257 296 316 317 322 324 318 318 320 322 315 302 281 255 238 212 206 221 229 229 230 221 217 218 222 220 211 210 215 225 220
226 220 239 241 276 278 292 290 300 280 275 280 262 272 298 304 302 306 311 308 305 307 311 312 307 293 265 240 226 211 212 224 223 219 222 211 214 222 220 216 216 213 218 221
231 239 262 265 270 279 237 291 309 299 284 292 283 281 286 287 291 298 303 298 297 299 303 306 305 296 281 255 242 225 217 221 221 217 219 212 211 211 211 217 205 210 217 219
225 234 259 257 258 257 287 293 296 295 297 290 281 282 284 286 291 293 290 290 293 293 294 297 301 297 284 269 255 239 226 225 224 221 223 221 215 215 213 208 206 203 213 217
217 240 256 275 279 282 288 289 293 293 291 289 287 284 285 289 286 287 288 290 290 289 287 290 293 294 291 279 266 254 238 231 226 228 225 227 224 218 216 212 211 214 209 214
245 255 260 266 273 278 283 290 290 288 287 286 286 286 287 285 283 283 285 287 286 287 287 287 290 293 294 285 274 256 242 236 226 226 227 227 223 222 218 217 215 209 210 208
258 264 269 273 281 283 285 282 279 278 281 283 289 288 286 284 281 280 282 282 280 282 283 284 284 287 287 284 276 265 248 240 232 224 222 228 222 219 224 223 221 215 212 210
273 274 273 283 286 282 277 276 272 275 279 284 287 287 286 284 281 280 279 279 278 278 279 280 279 281 284 286 276 266 255 244 235 229 218 223 220 218 222 225 222 219 215 211
268 271 281 283 281 281 282 279 275 277 280 282 286 286 285 282 279 279 280 281 280 276 273 276 277 277 278 277 272 263 255 249 240 231 224 222 220 215 217 222 223 221 214 208
280 281 277 276 278 280 279 279 280 280 280 280 280 281 280 278 276 277 277 278 279 278 274 272 272 270 270 273 273 268 259 252 243 235 229 225 223 214 215 220 222 220 217 212
275 274 270 270 272 275 277 277 276 277 278 278 277 276 277 276 275 275 277 277 277 275 273 269 268 267 266 269 269 267 262 253 244 238 231 226 224 216 211 216 218 218 218 216
279 278 277 275 275 275 276 276 275 275 274 274 274 275 276 277 274 270 272 274 274 271 272 270 267 265 264 263 265 261 261 256 244 242 236 228 225 219 212 211 213 215 217 217
291 289 284 281 278 274 274 274 273 272 272 272 272 272 272 273 272 270 267 270 273 270 266 265 265 264 264 262 258 256 254 256 252 243 237 230 228 225 215 211 211 211 213 217
290 286 284 282 280 277 275 275 274 272 269 268 270 270 270 271 269 267 266 267 271 273 266 264 262 260 259 259 259 256 252 245 249 248 238 230 230 227 220 212 211 208 207 212
292 287 283 281 280 280 279 280 281 281 277 272 267 265 264 263 264 264 262 263 264 265 266 265 264 263 260 256 257 257 256 251 247 247 244 232 225 227 223 216 212 210 206 205
296 291 286 284 283 283 284 283 282 280 276 271 264 258 256 253 251 254 258 259 262 262 261 260 260 263 264 255 257 254 253 251 242 238 237 236 224 223 223 217 214 213 209 205
302 298 293 291 290 290 287 284 281 277 273 267 259 255 253 249 246 245 249 252 259 259 258 258 255 257 265 257 256 252 249 248 245 240 233 232 234 221 221 218 214 213 210 207
311 307 303 301 300 295 293 290 280 272 267 262 256 249 248 247 243 243 244 244 247 256 256 257 257 255 257 262 257 252 248 245 242 238 230 222 223 228 217 214 211 211 211 208
318 314 309 308 302 296 293 288 279 270 262 255 250 244 242 243 242 238 241 239 236 249 254 253 254 255 256 256 253 250 246 242 238 236 229 224 218 218 221 211 209 207 209 208
322 318 314 311 305 299 292 289 277 267 254 251 247 241 238 239 244 235 235 237 241 246 249 253 255 255 252 249 246 244 243 238 234 231 226 222 217 211 212 214 210 208 207 206
330 327 323 318 311 302 296 289 278 273 260 252 249 240 234 232 239 244 233 231 236 239 246 250 252 249 246 246 241 239 241 238 234 230 223 218 212 209 205 206 209 210 207 205
340 335 333 327 316 305 299 294 288 281 265 250 248 243 232 229 232 239 242 236 232 232 235 241 246 242 232 233 235 232 231 228 227 223 217 213 207 204 201 202 204 207 207 205
352 346 341 341 330 319 311 309 287 269 260 254 254 244 233 228 227 229 234 237 232 227 226 229 232 229 216 211 215 217 215 207 208 206 206 204 201 199 197 197 198 201 203 202